Regional Weather Roundup
Issued by NWS

Home | Current Version | Previous Version | Graphics & Text | Print | Product List | Glossary On
Versions: 1 2 3 4 5 6 7 8 9 10 11 12 13 14 15 16 17 18 19 20 21 22 23 24 25 26 27 28 29 30 31 32 33 34 35 36 37 38 39 40 41 42 43 44 45 46 47 48 49 50
864
ASUS43 KLOT 250009
RWRIL

ILLINOIS REGIONAL WEATHER ROUNDUP
NATIONAL WEATHER SERVICE CHICAGO/ROMEOVILLE IL
700 PM CDT SUN SEP 24 2017

NOTE: "FAIR" INDICATES FEW OR NO CLOUDS BELOW 12,000 FEET WITH NO
SIGNIFICANT WEATHER AND/OR OBSTRUCTIONS TO VISIBILITY.

* THESE STATIONS ARE NOT UNDER NWS QUALITY CONTROL. THEY ALSO MAY NOT
  REPORT WEATHER SUCH AS PRECIPITATION OR FOG.

ILZ001-002-007-009-015-016-024-250100-
NORTHWEST ILLINOIS

CITY           SKY/WX    TMP DP  RH WIND       PRES   REMARKS
MOLINE         CLEAR     78  67  68 SE5       29.95S HX  80
6HR MIN TEMP:  78; 6HR MAX TEMP:  91;

STERLING*      CLEAR     82  64  54 SE3       29.98S HX  83
SAVANNA*       CLEAR     80  65  59 SE3       29.96S HX  82
$$

ILZ003-004-008-010-011-017-018-250100-
NORTH CENTRAL ILLINOIS

CITY           SKY/WX    TMP DP  RH WIND       PRES   REMARKS
ROCKFORD       CLEAR     81  60  48 SE3       30.00S HX  82
6HR MIN TEMP:  80; 6HR MAX TEMP:  90;

FREEPORT*      CLEAR     78  62  57 SE5       30.00F HX  80
ROCHELLE*      CLEAR     78  63  60 SE5       30.01S
DE KALB*       PTCLDY    81  61  50 SE5       30.02S HX  82
PERU*          PTCLDY    84  60  43 CALM      29.99S HX  84
$$

ILZ005-006-012>014-019>023-250100-
NORTHEAST ILLINOIS

CITY           SKY/WX    TMP DP  RH WIND       PRES   REMARKS
CHICAGO-OHARE  PTCLDY    85  58  39 E10       30.00S HX  84
6HR MIN TEMP:  85; 6HR MAX TEMP:  93;

CHICAGO-MIDWAY PTCLDY    84  61  45 E8        30.01R HX  84
6HR MIN TEMP:  84; 6HR MAX TEMP:  92;

AURORA         CLEAR     80  63  55 SE5       30.00F HX  81
6HR MIN TEMP:  80; 6HR MAX TEMP:  90;

LANSING*       CLEAR     83  63  49 CALM      30.01S HX  84
JOLIET*        CLEAR     81  64  56 CALM      30.00S HX  82
WAUKEGAN       CLEAR     77  65  66 CALM      30.01S
6HR MIN TEMP:  77; 6HR MAX TEMP:  87;

DUPAGE AIRPORT CLEAR     81  61  50 S6        30.00S HX  82
6HR MIN TEMP:  81; 6HR MAX TEMP:  91;

KANKAKEE*      CLEAR     80  66  62 SE5       30.02S HX  82
WHEELING       CLEAR     82  62  50 SE5       30.02R HX  83
6HR MIN TEMP:  82; 6HR MAX TEMP:  92;

MORRIS*        CLEAR     80  61  53 E6        29.99S HX  81
ROMEOVILLE*    CLEAR     80  61  52 SE5       30.01S HX  81
NORTHERLY ISL    N/A     77  65  66 E6          N/A
$$

LMZ740>746-250100-
SOUTHERN LAKE MICHIGAN

STATION/POSITION SKY/WX   TEMP    WIND        PRES    VSBY  WAVE
                          AIR SEA DIR/SP/G                  HT/PER
                          (F)     (DEG/KT/KT) (MB)    (MI)  (FT/S)
SOUTHERN BUOY              77 72  100/  4/  4 1016.4F         0
WILMETTE HARBOR            76 72   90/  8/ 10   N/A           1/ 2
HARRISON CRIB              80      80/ 14/ 15   N/A
BURNHAM HARBOR             76                   N/A
CALUMET HARBOR                     70/  5/  7   N/A
BURNS HARBOR               74      20/  3/  3 1016.6F
MICHIGAN CITY              82      80/  5/  6   N/A
MICHIGAN CITY 6N           75 73   70/  6/  8   N/A           1
ST. JOSEPH                 74 73   70/  4/  6 1016.5          0
$$

ILZ025>027-034>036-040-047-049-050-058-095>099-250100-
WEST-CENTRAL ILLINOIS

CITY           SKY/WX    TMP DP  RH WIND       PRES   REMARKS
QUINCY         CLEAR     83  62  49 SE3       29.95S HX  84
GALESBURG*     CLEAR     82  62  50 SE3       29.98S HX  83
MACOMB*        CLEAR     81  61  50 SE3       29.98S HX  82
JACKSONVILLE*  CLEAR     82  60  46 SE3       29.96S HX  82
PITTSFIELD*    CLEAR     83  64  52 CALM      29.97S HX  84
$$

ILZ028>032-037-038-041>044-048-051>054-059>061-250100-
CENTRAL ILLINOIS

CITY           SKY/WX    TMP DP  RH WIND       PRES   REMARKS
PONTIAC        CLEAR     80  62  53 E6        30.00S HX  81
BLOOMINGTON    CLEAR     81  60  48 E7        30.01S HX  82
DECATUR        CLEAR     84  57  39 CALM      29.98S HX  83
PEORIA         CLEAR     85  62  46 SE3       29.97S HX  85
6HR MIN TEMP:  85; 6HR MAX TEMP:  91;

LACON*         CLEAR     80  64  58 CALM      29.97S HX  81
LINCOLN*       CLEAR     82  62  50 CALM      29.97S HX  83
SPRINGFIELD    CLEAR     84  59  42 SE3       29.97S HX  84
6HR MIN TEMP:  84; 6HR MAX TEMP:  94;

TAYLORVILLE    CLEAR     82  59  45 CALM      29.97S HX  82
6HR MIN TEMP:  82; 6HR MAX TEMP:  93;

$$

ILZ033-039-045-046-055>057-062-063-250100-
EAST-CENTRAL ILLINOIS

CITY           SKY/WX    TMP DP  RH WIND       PRES   REMARKS
CHAMPAIGN      CLEAR     82  56  40 E6        29.99S HX  82
RANTOUL*       CLEAR     83  60  44 E3        30.00S HX  83
MATTOON        CLEAR     83  60  45 SE5       29.98S HX  83
PARIS*         CLEAR     83  59  43 E6        30.01S HX  83
$$

ILZ079-100>102-250100-
SOUTHWEST ILLINOIS

CITY           SKY/WX    TMP DP  RH WIND       PRES   REMARKS
ALTON          CLEAR     81  64  57 E6        29.96S HX  82
BELLEVILLE     CLEAR     83  64  52 CALM      29.94S HX  84
CAHOKIA*       CLEAR     84  62  47 E3        29.94S HX  85
SPARTA*        CLEAR     84  62  46 S3        29.97S HX  85
$$

ILZ064>066-069>071-074>076-080>082-084>086-088>090-092>094-250100-
SOUTH-CENTRAL ILLINOIS

CITY           SKY/WX    TMP DP  RH WIND       PRES   REMARKS
CARBONDALE     CLOUDY    79  68  69 SE9       29.97R HX  81
6HR MIN TEMP:  79; 6HR MAX TEMP:  92;

CAIRO*         CLOUDY    73  65  77 SE6       29.98F
EFFINGHAM*     CLEAR     84  58  40 E3        29.99S HX  83
MARION         MOCLDY    79  66  65 SE12      29.98S HX  81
MT. VERNON       N/A     80  61  52 CALM      29.98R HX  81
CENTRALIA*     CLEAR     85  60  42 CALM      29.96S HX  84
SALEM*         CLEAR     87  56  35 CALM      29.97S HX  85
METROPOLIS*    PTCLDY    75  66  72 SW8G18    30.01R
$$

ILZ067-068-072-073-078-083-087-091-250100-
SOUTHEAST ILLINOIS

CITY           SKY/WX    TMP DP  RH WIND       PRES   REMARKS
LAWRENCEVILLE  CLEAR     79  66  64 SE8       29.99R HX  81
FLORA*         CLEAR     86  61  43 E3        29.98R HX  86
FAIRFIELD*     CLEAR     83  61  47 CALM      29.97R HX  83
HARRISBURG*    PTCLDY    81  66  60 SW6       29.99R HX  83
ROBINSON*      CLEAR     77  64  62 CALM      30.00S
CARMI*         CLEAR     79  62  55 S5        29.98R HX  80
$$

ABBREVIATIONS USED IN REMARKS
   TC - TEMPERATURE IN CELSIUS
  WCI - WIND CHILL INDEX
   HX - HEAT INDEX
  VSB - VISIBILITY
$$





USA.gov is the U.S. government's official web portal to all federal, state and local government web resources and services.